{"data":{"norad_id":59933,"epoch":"2026-09-21T04:50:36.419424Z","epoch_age_seconds":113831,"freshness":"FRESH","line1":"1 59933U 24106M   26264.20181041  .00000381  00000+0  23357-4 0  9994","line2":"2 59933  43.0035 308.3944 0001466 275.7856  84.2828 15.27578089130428","mean_motion":15.27578089,"eccentricity":0.0001466,"inclination_deg":43.0035,"raan_deg":308.3944,"arg_perigee_deg":275.7856,"mean_anomaly_deg":84.2828,"bstar":2.3357e-5,"rev_number":13042,"period_min":94.266866641343,"perigee_km":482.04896754654,"apogee_km":484.06066898765,"semimajor_km":6861.1918182671,"source":"CELESTRAK","updated_at":"2026-09-22T09:00:49.112936Z"}}